Flag for Russia Weather past 2 weeks in Bryansk, Russia

Now
81 °F

Sunny.


Feels Like: 81 °F
Forecast: 60 / 82 °F
Wind: 3 mph from Southwest

Location: Brjansk

Current Time: Aug 4, 2015 at 9:49:03 PM

Latest Report: Aug 4, 2015 at 7:00 PM


Visibility: 10 mi

Pressure: 30.09 "Hg

Humidity: 48%

Dew point: 59 °F

Location of BryanskLocation

Historic Weather in Bryansk — Graph

°F

Bryansk temperature yesterday

Maximum temperature yesterday: 81 °F (at 4:00 PM)
Minimum temperature yesterday: 48 °F (at 5:00 AM)
Average temperature yesterday: 68 °F

Past Weeks' High & Low Weather Summary

 TemperatureHumidityPressure
High93 °F (Jul 26, 3:00 PM)100% (Jul 27, 3:30 PM)30.30 "Hg (Jul 27, 3:30 PM)
Low48 °F (Aug 3, 5:00 AM)35% (Aug 4, 4:00 PM)29.56 "Hg (Jul 20, 7:00 PM)
Average69 °F67%29.93 "Hg
* Reported Jul 20 7:00 PM — Aug 4 7:00 PM, Bryansk, Weather by CustomWeather, © 2015

Note: Actual official high and low records may vary slightly from our data, if they occured in-between our weather recording intervals... More about our weather records

Advertising

Bryansk weather history for previous 24 hours

 ConditionsComfort  
Time TempWeatherWind HumidityBarometerVisibility
7:00 PM
Tue, Aug 4
81 °FSunny.3 mph48%30.09 "Hg10 mi
6:00 PM82 °FPassing clouds.3 mph45%30.09 "HgN/A
5:30 PM79 °FScattered clouds.3 mph48%30.12 "HgN/A
5:00 PM82 °FScattered clouds.6 mph40%30.12 "HgN/A
4:30 PM84 °FScattered clouds.8 mph40%30.12 "HgN/A
4:00 PM84 °FScattered clouds.8 mph35%30.12 "HgN/A
3:30 PM84 °FScattered clouds.8 mph40%30.12 "HgN/A
3:00 PM84 °FScattered clouds.8 mph40%30.12 "HgN/A
2:30 PM82 °FScattered clouds.8 mph42%30.15 "HgN/A
2:00 PM82 °FScattered clouds.8 mph42%30.15 "HgN/A
1:30 PM82 °FScattered clouds.8 mph42%30.15 "HgN/A
1:00 PM81 °FPassing clouds.6 mph48%30.15 "HgN/A
12:30 PM81 °FPassing clouds.6 mph48%30.15 "HgN/A
12:00 PM81 °FPassing clouds.6 mph48%30.18 "HgN/A
11:30 AM79 °FPassing clouds.6 mph51%30.18 "HgN/A
11:00 AM79 °FPassing clouds.3 mph51%30.18 "HgN/A
10:30 AM77 °FSunny.3 mph51%30.18 "Hg10 mi
10:00 AM75 °FSunny.3 mph57%30.18 "Hg10 mi
9:30 AM73 °FPassing clouds.3 mph61%30.18 "HgN/A
9:00 AM72 °FSunny.3 mph61%30.18 "Hg10 mi
8:30 AM70 °FSunny.1 mph69%30.18 "Hg10 mi
8:00 AM66 °FSunny.3 mph73%30.18 "Hg10 mi
7:00 AM61 °FSunny.3 mph88%30.18 "Hg10 mi
6:00 AM57 °FPassing clouds.No wind94%30.18 "HgN/A
5:00 AM57 °FPassing clouds.No wind94%30.18 "HgN/A
4:00 AM57 °FClear.No wind94%30.18 "Hg10 mi
3:00 AM59 °FClear.No wind88%30.18 "Hg10 mi
2:00 AM61 °FClear.No wind88%30.18 "Hg10 mi
1:00 AM63 °FClear.No wind83%30.18 "Hg10 mi
12:00 AM64 °FClear.No wind78%30.18 "Hg10 mi
11:00 PM
Mon, Aug 3
64 °FClear.No wind73%30.18 "Hg10 mi
10:00 PM66 °FClear.No wind68%30.18 "Hg10 mi
9:00 PM68 °FSunny.No wind64%30.18 "Hg10 mi
Weather by CustomWeather, © 2015

See weather overviewHow to use our weather pages